Flag for Germany Weather past 2 weeks in Frankenthal (Pfalz), Rhineland-Palatinate, Germany

Now
64 °F

Clear.


Feels Like: 64 °F
Forecast: 53 / 72 °F
Wind: 3 mph from North

Location: Baden Wurttemberg - Neuostheim

Current Time: Sep 30, 2014 at 8:42:13 AM

Latest Report: Sep 30, 2014 at 7:50 AM


Visibility: 10 mi

Pressure: 30.27 "Hg

Humidity: 78%

Dew point: 57 °F

Location of Frankenthal (Pfalz)Location

Historic Weather in Frankenthal (Pfalz) — Graph

°F

Frankenthal (Pfalz) temperature yesterday

Maximum temperature yesterday: 77 °F (at 2:50 PM)
Minimum temperature yesterday: 57 °F (at 5:50 AM)
Average temperature yesterday: 69 °F

Past Weeks' High & Low Weather Summary

 TemperatureHumidityPressure
High79 °F (Sep 17, 3:20 PM)100% (Sep 15, 7:50 AM)30.36 "Hg (Sep 15, 7:50 AM)
Low41 °F (Sep 23, 6:20 AM)39% (Sep 17, 4:20 PM)29.86 "Hg (Sep 17, 3:20 PM)
Average64 °F73%30.07 "Hg
* Reported Sep 15 7:20 AM — Sep 30 7:20 AM, Frankenthal (Pfalz), Weather by CustomWeather, © 2014

Note: Actual official high and low records may vary slightly from our data, if they occured in-between our weather recording intervals... More about our weather records

Advertising

Frankenthal (Pfalz) weather history for previous 24 hours

 ConditionsComfort  
Time TempWeatherWind HumidityBarometerVisibility
7:20 AM
Sep 30
64 °FClear.2 mph78%30.27 "Hg10 mi
6:50 AM64 °FPassing clouds.3 mph78%30.24 "HgN/A
6:20 AM64 °FPartly cloudy.5 mph78%30.24 "HgN/A
5:50 AM64 °FPassing clouds.3 mph78%30.24 "HgN/A
5:20 AM64 °FPartly cloudy.3 mph78%30.24 "HgN/A
10:50 PM
Sep 29
68 °FPartly cloudy.2 mph69%30.24 "HgN/A
10:20 PM70 °FPartly cloudy.3 mph60%30.24 "HgN/A
9:50 PM70 °FClear.2 mph60%30.24 "Hg10 mi
9:20 PM70 °FClear.3 mph64%30.24 "Hg10 mi
8:50 PM72 °FClear.2 mph61%30.24 "Hg10 mi
8:20 PM72 °FClear.3 mph61%30.24 "Hg10 mi
7:50 PM73 °FSunny.3 mph57%30.24 "Hg10 mi
7:20 PM73 °FSunny.3 mph57%30.21 "Hg10 mi
6:50 PM75 °FSunny.3 mph57%30.21 "Hg10 mi
6:20 PM75 °FPassing clouds.5 mph54%30.21 "HgN/A
5:50 PM77 °FPassing clouds.5 mph51%30.21 "HgN/A
5:20 PM75 °FPassing clouds.5 mph54%30.21 "HgN/A
4:50 PM77 °FPassing clouds.6 mph51%30.21 "HgN/A
4:20 PM77 °FPassing clouds.7 mph51%30.21 "HgN/A
3:50 PM77 °FPassing clouds.6 mph51%30.21 "HgN/A
3:20 PM77 °FPassing clouds.7 mph47%30.21 "HgN/A
2:50 PM77 °FPassing clouds.6 mph54%30.21 "HgN/A
2:20 PM75 °FSunny.5 mph54%30.24 "Hg10 mi
1:50 PM75 °FPassing clouds.6 mph57%30.24 "HgN/A
1:20 PM73 °FPassing clouds.6 mph57%30.24 "HgN/A
12:50 PM72 °FPassing clouds.6 mph61%30.24 "HgN/A
12:20 PM72 °FPassing clouds.6 mph65%30.24 "HgN/A
11:50 AM70 °FPassing clouds.6 mph69%30.27 "HgN/A
11:20 AM68 °FPassing clouds.6 mph73%30.27 "HgN/A
10:50 AM66 °FPassing clouds.6 mph78%30.27 "HgN/A
10:20 AM64 °FPassing clouds.6 mph78%30.27 "HgN/A
9:50 AM64 °FPassing clouds.8 mph78%30.27 "HgN/A
9:20 AM63 °FPassing clouds.6 mph83%30.24 "HgN/A
8:50 AM61 °FPassing clouds.5 mph88%30.24 "HgN/A
8:20 AM59 °FClear.2 mph88%30.24 "Hg10 mi
Weather by CustomWeather, © 2014

See weather overviewHow to use our weather pages